Regional Weather Roundup
Issued by NWS Charleston, WV

Home | Current Version | Previous Version | Text Only | Print | Product List | Glossary Off
Versions: 1 2 3 4 5 6 7 8 9 10 11 12 13 14 15 16 17 18 19 20 21 22 23 24 25 26 27 28 29 30 31 32 33 34 35 36 37 38 39 40 41 42 43 44 45 46 47 48 49 50

841
ASUS41 KRLX 160610
RWRRLX
West Virginia Regional Weather Roundup
National Weather Service Charleston WV
100 AM EST TUE JAN 16 2018

Note: "fair" indicates few or no clouds below 12,000 feet with no
significant weather and/or obstructions to visibility.

WVZ003-160700-
Northern Panhandle of West Virginia

CITY           SKY/WX    TMP DP  RH WIND       PRES   REMARKS
WHEELING       LGT SNOW  26  23  88 SW8       30.29S FOG
$$

WVZ009-160700-
Northwest West Virginia

CITY           SKY/WX    TMP DP  RH WIND       PRES   REMARKS
PARKERSBURG    CLOUDY    31  26  82 W5        30.36S
$$

WVZ006-160700-
Western West Virginia

CITY           SKY/WX    TMP DP  RH WIND       PRES   REMARKS
HUNTINGTON     CLOUDY    32  23  69 W10       30.34S
$$

WVZ015-160700-
West Central West Virginia

CITY           SKY/WX    TMP DP  RH WIND       PRES   REMARKS
CHARLESTON     CLOUDY    34  24  67 NW3       30.33R
$$

WVZ022-031-160700-
North Central West Virginia

CITY           SKY/WX    TMP DP  RH WIND       PRES   REMARKS
CLARKSBURG     CLOUDY    36  22  56 W6        30.30S
MORGANTOWN     CLOUDY    35  22  58 SW8       30.30R
$$

WVZ025-035-042-045-160700-
Southern West Virginia

CITY           SKY/WX    TMP DP  RH WIND       PRES   REMARKS
BECKLEY        CLOUDY    33  21  61 S6        30.27F
LOGAN          CLOUDY    34  23  64 CALM      30.29F
BLUEFIELD      MOCLDY    31  20  63 SW6       30.27F
LEWISBURG      CLOUDY    24  19  83 N3        30.30S
$$

WVZ047-160700-
Northern Mountains of West Virginia

CITY           SKY/WX    TMP DP  RH WIND       PRES   REMARKS
ELKINS         CLOUDY    33  21  61 S7        30.28R
$$

WVZ052-160700-
Eastern Panhandle of West Virginia

CITY           SKY/WX    TMP DP  RH WIND       PRES   REMARKS
MARTINSBURG    CLOUDY    23  19  85 CALM      30.41F
PETERSBURG       N/A     19  15  84 CALM      30.37F
$$




USA.gov is the U.S. government's official web portal to all federal, state and local government web resources and services.